Regional Weather Roundup
Issued by NWS

Home | Current Version | Previous Version | Graphics & Text | Print | Product List | Glossary Off
Versions: 1 2 3 4 5 6 7 8 9 10 11 12 13 14 15 16 17 18 19 20 21 22 23 24 25 26 27 28 29 30 31 32 33 34 35 36 37 38 39 40 41 42 43 44 45 46 47 48 49 50

000
ASUS43 KTOP 252208
RWRKS

WEATHER ROUNDUP FOR KANSAS
NATIONAL WEATHER SERVICE GOODLAND KS
500 PM CDT THU AUG 25 2016

NOTE:  "FAIR" INDICATES FEW OR NO CLOUDS BELOW 12,000 FEET WITH NO
SIGNIFICANT WEATHER AND/OR OBSTRUCTIONS TO VISIBILITY.

KSZ001>006-013>018-027>032-041>047-252300-
NORTHWEST KANSAS

CITY           SKY/WX    TMP DP  RH WIND       PRES   REMARKS
GOODLAND       SUNNY     76  44  32 E14G20    30.17F
HAYS           SUNNY     75  54  46 NE10      30.12F
HILL CITY      CLOUDY    74  55  51 E7        30.15F
RUSSELL        SUNNY     78  58  49 NE10      30.10F
$$

KSZ061>065-074>080-084>089-252300-
SOUTHWEST KANSAS

CITY           SKY/WX    TMP DP  RH WIND       PRES   REMARKS
DODGE CITY     MOSUNNY   78  61  55 NE8       30.12F
ELKHART          N/A     71  58  63 N8          N/A
GARDEN CITY    CLOUDY    72  59  63 NE9       30.13F
GREAT BEND     SUNNY     79  57  47 NE10G17   30.09F
LIBERAL        CLOUDY    72  61  68 N9        30.15F
PRATT          PTSUNNY   73  61  65 NE8       30.10F
$$

KSZ066>073-081>083-090>101-252300-
SOUTHEAST KANSAS

CITY           SKY/WX    TMP DP  RH WIND       PRES   REMARKS
CHANUTE        MOSUNNY   90  72  55 NW6       30.00F HX  97
COFFEYVILLE    MOSUNNY   93  69  45 N10       29.97F HX  98
HUTCHINSON     PTSUNNY   80  66  62 NE6       30.07F
MEDICINE LODGE   N/A     78  65  63 N9        30.05
NEWTON         MOSUNNY   78  68  71 N5        30.07F
PARSONS        MOSUNNY   92  69  47 N9        30.00F HX  97
WICHITA INTL   MOSUNNY   85  68  56 NE8       30.04F
WICHITA JABRA  PTSUNNY   84  70  62 N9        30.04F
WICHITA MCCONL MOSUNNY   82  68  62 N9        30.03F
WINFIELD       CLOUDY    87  69  54 NW5       30.03F
$$

KSZ007>012-019>026-033>040-048>060-102>105-252300-
NORTHEAST KANSAS

CITY           SKY/WX    TMP DP  RH WIND       PRES   REMARKS
CONCORDIA      CLOUDY    78  56  46 NE12      30.11F
EMPORIA        MOSUNNY   84  69  60 NW6       30.04F
LAWRENCE       CLOUDY    81  71  71 NW9       30.03F
MANHATTAN      PTSUNNY   77  65  66 NE10      30.07F
MARYSVILLE     SUNNY     79  61  53 NE7       30.10F
OLATHE IND     PTSUNNY   82  69  64 W8        30.04F
OLATHE EXE     PTSUNNY   81  71  71 S3        30.03F
SALINA         CLOUDY    79  64  60 NE9       30.08F
TOPEKA BILLARD   N/A     80  70  71 N12       30.05F
TOPEKA FORBES  CLOUDY    81  69  67 N9        30.05F
$$




USA.gov is the U.S. government's official web portal to all federal, state and local government web resources and services.